[[[{"header":{"parameterUnit":"kt","parameterCategory":2,"dx":1,"dy":1,"la1":30.253999710083008,"la2":30.299108505249023,"lo1":-89.0895004272461,"lo2":-89.04439544677734,"nx":28,"ny":28,"refTime":"2022-10-25T21:00:00:Z","depth":0,"parameterNumber":1,"parameterNumberName":"U-component_of_WINDS"},"data":[-0.853,-0.8629,-0.8633,-0.8748,-0.8772,-0.8852,-0.8882,-0.8922,-0.8955,-0.9051,-0.9108,-0.9124,-0.916,-0.923,-0.9292,-0.9298,-0.9326,-0.9357,-0.9359,-0.9215,-0.9196,-0.9177,-0.9155,-0.9362,-0.9362,-0.951,-0.9511,-0.9512,-0.8423,-0.8447,-0.8508,-0.8572,-0.8625,-0.8598,-0.8647,-0.8694,-0.8766,-0.8808,-0.8864,-0.895,-0.9019,-0.9045,-0.9113,-0.9161,-0.9154,-0.9179,-0.9178,-0.9185,-0.9029,-0.9006,-0.9184,-0.9184,-0.9184,-0.9184,-0.9184,-0.9184,-0.8229,-0.8288,-0.8329,-0.8396,-0.8429,-0.8472,-0.8529,-0.8547,-0.8608,-0.8679,-0.8673,-0.8756,-0.88,-0.8885,-0.8915,-0.898,-0.8954,-0.8985,-0.8993,-0.9002,-0.9011,-0.8801,-0.8992,-0.8991,-0.8991,-0.899,-0.899,0,-0.809,-0.809,-0.8149,-0.8211,-0.826,-0.8308,-0.8354,-0.8389,-0.8393,-0.8444,-0.8518,-0.8562,-0.865,-0.8722,-0.8787,-0.8812,-0.8794,-0.8791,-0.8813,-0.882,-0.8816,-0.8822,-0.8572,-0.8787,-0.8785,-0.8784,-0.8783,-0.8782,-0.7898,-0.7965,-0.801,-0.8052,-0.8078,-0.8145,-0.8186,-0.8183,-0.8228,-0.8284,-0.8337,-0.8408,-0.8465,-0.8585,-0.8608,-0.8674,-0.8667,-0.8748,-0.8677,-0.8678,-0.8672,-0.867,-0.8678,-0.8764,-0.8766,-0.8768,-0.877,0,-0.779,-0.7798,-0.7904,-0.7942,-0.7954,-0.8025,-0.8059,-0.8118,-0.8129,-0.8213,-0.8232,-0.8251,-0.8325,-0.8334,-0.8421,-0.8424,-0.8545,-0.8533,-0.853,-0.8529,-0.8606,-0.86,-0.8847,-0.8881,-0.8662,-0.8664,-0.8666,0,-0.7631,-0.772,-0.7727,-0.7788,-0.7886,-0.7881,-0.7979,-0.7999,-0.8036,-0.8102,-0.8079,-0.8142,-0.8144,-0.8208,-0.8212,-0.8312,-0.8327,-0.8337,-0.8338,-0.8342,-0.8341,-0.837,-0.8361,-0.8333,-0.8332,-0.8331,-0.833,0,-0.7465,-0.7571,-0.767,-0.7696,-0.7747,-0.7794,-0.7818,-0.7859,-0.7901,-0.7955,-0.7982,-0.8046,-0.8082,-0.8133,-0.8139,-0.809,-0.826,-0.8194,-0.827,-0.8271,-0.8311,-0.8309,-0.8522,-0.8329,-0.8328,-0.8328,-0.8327,0,-0.7339,-0.7393,-0.7534,-0.7576,-0.7605,-0.767,-0.7732,-0.779,-0.7836,-0.7843,-0.7886,-0.7874,-0.796,-0.7894,-0.8013,-0.7949,-0.7986,-0.8002,-0.8008,-0.802,-0.7948,-0.8071,-0.8269,-0.8292,-0.8026,-0.8023,-0.8021,0,-0.7148,-0.7292,-0.7289,-0.7424,-0.7492,-0.7463,-0.7535,-0.7576,-0.7592,-0.7653,-0.767,-0.774,-0.7693,-0.7717,-0.7774,-0.7796,-0.788,-0.7784,-0.7878,-0.7881,-0.787,-0.805,-0.808,-0.8223,-0.7989,-0.7992,-0.7995,0,-0.7001,-0.7062,-0.7086,-0.7116,-0.7169,-0.7226,-0.7309,-0.7377,-0.7418,-0.7466,-0.7538,-0.7635,-0.7605,-0.7645,-0.7642,-0.7702,-0.7823,-0.7662,-0.7663,-0.7693,-0.7973,-0.8,-0.8024,-0.7808,-0.7812,-0.7815,-0.7969,0,-0.6816,-0.6888,-0.6953,-0.702,-0.7064,-0.7149,-0.7158,-0.7205,-0.7197,-0.7212,-0.7315,-0.7353,-0.7425,-0.7454,-0.7448,-0.7579,-0.756,-0.7527,-0.7468,-0.7585,-0.7637,-0.7657,-0.739,-0.7389,-0.7387,-0.7386,0,0,-0.6633,-0.6737,-0.6733,-0.6812,-0.6851,-0.682,-0.691,-0.6944,-0.7014,-0.7042,-0.7007,-0.7153,-0.7186,-0.7312,-0.7349,-0.7377,-0.7403,-0.7362,-0.7528,-0.7544,-0.7559,-0.7613,-0.7635,-0.7383,-0.7383,-0.7382,-0.7382,0,-0.6568,-0.6598,-0.6685,-0.6719,-0.677,-0.6781,-0.6802,-0.6848,-0.6862,-0.6962,-0.6939,-0.7002,-0.7119,-0.7158,-0.7193,-0.7345,-0.7326,-0.7366,-0.7445,-0.7513,-0.7531,-0.7547,-0.7604,-0.7624,-0.7378,-0.7379,-0.7379,0,-0.6428,-0.646,-0.6503,-0.6586,-0.662,-0.6691,-0.663,-0.6707,-0.6761,-0.6727,-0.6829,-0.6852,-0.6904,-0.7021,-0.7074,-0.7045,-0.7256,-0.7191,-0.72,-0.7208,-0.7275,-0.7296,-0.7315,-0.7066,-0.7065,-0.7064,0,0,-0.6371,-0.6438,-0.6473,-0.6573,-0.6596,-0.6613,-0.6652,-0.6649,-0.6696,-0.6715,-0.6745,-0.6792,-0.686,-0.6905,-0.6969,-0.7095,-0.7107,-0.7152,-0.7167,-0.7179,-0.7193,-0.7263,-0.7284,-0.706,-0.706,-0.706,0,0,-0.6344,-0.6389,-0.6373,-0.649,-0.6533,-0.6577,-0.6639,-0.6621,-0.6679,-0.6672,-0.6672,-0.6685,-0.6794,-0.6818,-0.6759,-0.6949,-0.689,-0.6904,-0.693,-0.6949,-0.6963,-0.6957,-0.6705,0,0,0,0,0,-0.6284,-0.6383,-0.6367,-0.6389,-0.6496,-0.6585,-0.6599,-0.6601,-0.6558,-0.6607,-0.6629,-0.6605,-0.6787,-0.6734,-0.6756,-0.6824,-0.7005,-0.7014,-0.7024,-0.7087,-0.7106,-0.7122,0,0,0,0,0,0,-0.6292,-0.6318,-0.6365,-0.6412,-0.6436,-0.6581,-0.651,-0.6513,-0.6553,-0.6547,-0.6601,-0.6607,-0.6612,-0.6723,-0.6743,-0.6807,-0.6699,-0.7009,-0.7017,-0.7024,-0.7093,-0.7109,-0.7123,0,0,0,0,0,-0.6298,-0.6319,-0.649,-0.6411,-0.6432,-0.6458,-0.6506,-0.6509,-0.654,-0.6575,-0.6579,-0.6537,-0.6613,-0.663,-0.6735,-0.6798,-0.6685,-0.6692,-0.7014,-0.7021,-0.7026,-0.7101,0,0,0,0,0,0,-0.6303,-0.6323,-0.6495,-0.6501,-0.6374,-0.645,-0.6462,-0.6505,-0.6565,-0.657,-0.651,-0.6505,-0.6616,-0.6628,-0.6642,-0.6795,-0.6674,-0.6681,-0.6686,-0.7019,-0.7024,-0.7029,0,0,0,0,0,0,-0.6311,-0.6328,-0.6498,-0.6451,-0.6452,-0.6443,-0.6453,-0.6543,-0.6566,-0.6497,-0.6494,-0.6507,-0.6597,-0.6628,-0.6638,-0.6778,-0.6665,-0.6672,-0.6677,-0.668,-0.7023,-0.7027,0,0,0,0,0,0,-0.6319,-0.6333,-0.6449,-0.645,-0.6451,-0.6524,-0.6522,-0.6633,-0.6523,-0.6495,-0.6514,-0.6509,-0.6597,-0.6607,-0.6635,-0.6771,-0.6776,-0.6665,-0.667,-0.6674,-0.6676,0,0,0,0,0,0,0,-0.6324,-0.6226,-0.6456,-0.6449,-0.645,-0.6561,-0.6563,-0.6565,-0.6522,-0.6518,-0.6515,-0.6511,-0.6624,-0.6632,-0.664,-0.6766,0,0,-0.6665,-0.6668,0,0,0,0,0,0,0,0,-0.622,-0.6225,-0.6456,-0.6457,-0.6458,-0.6562,-0.6563,-0.6565,-0.6522,-0.6518,-0.6515,-0.6513,-0.6626,-0.6632,-0.6639,0,0,0,0,0,0,0,0,0,0,0,0,0,0,0,-0.6456,-0.6457,0,-0.6562,-0.6563,-0.6564,-0.6521,-0.6519,-0.6516,-0.6514,-0.6628,-0.6633,-0.6638,0,0,0,0,0,0,0,0,0,0,0,0,0,0,0,0,0,0,0,0,0,0,0,0,0,0,0,0,0,0,0,0,0,0,0,0,0,0,0,0,0,0,0,0,0,0,0,0,0,0,0,0,0,0,0,0,0,0,0,0,0,0,0,0,0,0,0,0,0]}],[{"header":{"parameterUnit":"kt","parameterCategory":2,"dx":1,"dy":1,"la1":30.253999710083008,"la2":30.299108505249023,"lo1":-89.0895004272461,"lo2":-89.04439544677734,"nx":28,"ny":28,"refTime":"2022-10-25T21:00:00:Z","depth":0,"parameterNumber":2,"parameterNumberName":"V-component_of_WINDS"},"data":[-8.7565,-8.7796,-8.7815,-8.8086,-8.8148,-8.8336,-8.8408,-8.8503,-8.8582,-8.8805,-8.8936,-8.8975,-8.9057,-8.9216,-8.9356,-8.9369,-8.9429,-8.9499,-8.9503,-8.9173,-8.9129,-8.9086,-8.9034,-8.9512,-8.9512,-8.9842,-8.9845,-8.9848,-8.7325,-8.7389,-8.7538,-8.7694,-8.7821,-8.7764,-8.7881,-8.7991,-8.8159,-8.8257,-8.8387,-8.8584,-8.874,-8.8799,-8.8951,-8.9057,-8.9038,-8.9097,-8.909,-8.9104,-8.8752,-8.8697,-8.9111,-8.9111,-8.9111,-8.9111,-8.911,-8.911,-8.6894,-8.7032,-8.7136,-8.7297,-8.7379,-8.7483,-8.7616,-8.7661,-8.7804,-8.7967,-8.7956,-8.8145,-8.8244,-8.8433,-8.8499,-8.8645,-8.8581,-8.865,-8.8668,-8.8686,-8.8705,-8.8231,-8.8671,-8.867,-8.8668,-8.8668,-8.8667,0,-8.6583,-8.6589,-8.6732,-8.6881,-8.6998,-8.7114,-8.7222,-8.7304,-8.7316,-8.7433,-8.7604,-8.7704,-8.7902,-8.8062,-8.8206,-8.826,-8.821,-8.8205,-8.8253,-8.8264,-8.8255,-8.8265,-8.7692,-8.8192,-8.8188,-8.8185,-8.8183,-8.8182,-8.6151,-8.6309,-8.6424,-8.6522,-8.6585,-8.6743,-8.6839,-8.6837,-8.694,-8.707,-8.719,-8.7351,-8.748,-8.7747,-8.7793,-8.7939,-8.7916,-8.8106,-8.7937,-8.7941,-8.7921,-8.7913,-8.7929,-8.8139,-8.8144,-8.8149,-8.8152,0,-8.5907,-8.5932,-8.6181,-8.6278,-8.6307,-8.6472,-8.6553,-8.6689,-8.6715,-8.6905,-8.6949,-8.699,-8.7156,-8.7171,-8.7361,-8.7364,-8.7634,-8.7606,-8.7601,-8.7597,-8.777,-8.7754,-8.8325,-8.84,-8.7903,-8.7907,-8.7911,0,-8.5548,-8.5754,-8.578,-8.5923,-8.6151,-8.6144,-8.637,-8.6415,-8.6499,-8.6649,-8.6594,-8.6735,-8.6731,-8.6874,-8.6877,-8.71,-8.7135,-8.715,-8.7149,-8.7157,-8.7155,-8.721,-8.7188,-8.7137,-8.7134,-8.7132,-8.7129,0,-8.5164,-8.5417,-8.5649,-8.5711,-8.5833,-8.5942,-8.5997,-8.6091,-8.6185,-8.6307,-8.6368,-8.651,-8.6589,-8.67,-8.6704,-8.6589,-8.6975,-8.6818,-8.6991,-8.6992,-8.7076,-8.7071,-8.7573,-8.7126,-8.7125,-8.7124,-8.7123,0,-8.4878,-8.5005,-8.5337,-8.5437,-8.5504,-8.5655,-8.5797,-8.593,-8.6032,-8.6045,-8.6141,-8.6106,-8.63,-8.6144,-8.6411,-8.6261,-8.6341,-8.6373,-8.6386,-8.6405,-8.623,-8.6513,-8.6988,-8.7039,-8.6422,-8.6416,-8.6411,0,-8.4432,-8.4772,-8.4768,-8.5083,-8.5242,-8.5171,-8.5339,-8.5431,-8.5462,-8.5599,-8.5631,-8.5788,-8.5674,-8.5725,-8.5855,-8.5894,-8.6089,-8.5868,-8.6066,-8.6073,-8.6044,-8.648,-8.6548,-8.6882,-8.6336,-8.6344,-8.635,0,-8.4089,-8.4237,-8.4293,-8.4363,-8.4484,-8.4616,-8.4808,-8.4962,-8.5054,-8.5162,-8.5323,-8.5541,-8.5465,-8.5549,-8.5534,-8.5669,-8.5957,-8.5568,-8.557,-8.5639,-8.6298,-8.6363,-8.6419,-8.5917,-8.5926,-8.5933,-8.629,0,-8.3656,-8.3828,-8.398,-8.4134,-8.4238,-8.4434,-8.4451,-8.4557,-8.4534,-8.4561,-8.4796,-8.4872,-8.5026,-8.5092,-8.5069,-8.5373,-8.5324,-8.524,-8.5089,-8.5375,-8.5493,-8.5541,-8.4913,-8.4908,-8.4904,-8.4901,0,0,-8.3224,-8.347,-8.3458,-8.3645,-8.3732,-8.3654,-8.3863,-8.3937,-8.409,-8.4151,-8.4067,-8.4387,-8.4452,-8.4735,-8.4825,-8.4887,-8.4943,-8.4841,-8.5238,-8.5276,-8.5311,-8.5437,-8.5487,-8.4895,-8.4893,-8.4892,-8.4891,0,-8.3069,-8.3141,-8.3347,-8.3425,-8.3539,-8.3558,-8.3607,-8.3706,-8.3732,-8.3962,-8.3893,-8.4035,-8.4288,-8.4368,-8.4441,-8.4808,-8.4747,-8.4853,-8.5047,-8.5201,-8.5243,-8.5281,-8.5413,-8.5461,-8.4882,-8.4883,-8.4883,0,-8.2736,-8.281,-8.291,-8.3104,-8.3177,-8.3341,-8.3188,-8.3366,-8.3487,-8.3389,-8.3618,-8.3663,-8.3768,-8.4033,-8.4152,-8.4079,-8.4569,-8.4415,-8.4439,-8.4452,-8.4602,-8.4653,-8.4698,-8.4101,-8.4098,-8.4095,0,0,-8.2599,-8.2758,-8.2835,-8.3071,-8.3123,-8.3153,-8.324,-8.3226,-8.3324,-8.3364,-8.3419,-8.3515,-8.3663,-8.376,-8.3898,-8.4187,-8.4208,-8.4318,-8.4355,-8.4385,-8.4415,-8.4573,-8.4623,-8.4085,-8.4085,-8.4084,0,0,-8.2533,-8.2632,-8.2591,-8.2868,-8.2965,-8.3054,-8.3198,-8.3149,-8.3276,-8.3254,-8.3235,-8.326,-8.3507,-8.3553,-8.3412,-8.3845,-8.3695,-8.3729,-8.3806,-8.3853,-8.3889,-8.3874,-8.3263,0,0,0,0,0,-8.2383,-8.262,-8.2582,-8.2631,-8.2873,-8.3076,-8.3106,-8.3098,-8.2993,-8.3107,-8.3145,-8.3073,-8.3473,-8.3348,-8.3395,-8.3553,-8.395,-8.3974,-8.3997,-8.4164,-8.4213,-8.4254,0,0,0,0,0,0,-8.2402,-8.2462,-8.2576,-8.2675,-8.2729,-8.3067,-8.2888,-8.2892,-8.298,-8.2964,-8.3069,-8.3077,-8.3071,-8.3322,-8.3366,-8.3516,-8.3248,-8.396,-8.398,-8.3998,-8.4181,-8.4221,-8.4255,0,0,0,0,0,-8.2417,-8.2465,-8.2856,-8.2672,-8.2719,-8.2764,-8.2879,-8.2881,-8.2949,-8.3008,-8.3014,-8.2934,-8.3076,-8.3111,-8.3348,-8.3496,-8.3219,-8.3235,-8.3973,-8.3989,-8.4003,-8.4201,0,0,0,0,0,0,-8.2428,-8.2468,-8.2865,-8.2879,-8.2581,-8.2745,-8.277,-8.2871,-8.2987,-8.2996,-8.2871,-8.2857,-8.3082,-8.3108,-8.3136,-8.349,-8.3194,-8.3211,-8.3221,-8.3985,-8.3997,-8.4009,0,0,0,0,0,0,-8.2442,-8.248,-8.2873,-8.2759,-8.276,-8.2727,-8.275,-8.2948,-8.2989,-8.2843,-8.2835,-8.2864,-8.3039,-8.3108,-8.3129,-8.3439,-8.3176,-8.3191,-8.3202,-8.3209,-8.3995,-8.4005,0,0,0,0,0,0,-8.2458,-8.2491,-8.2755,-8.2756,-8.2756,-8.2912,-8.2902,-8.315,-8.2895,-8.2839,-8.2871,-8.286,-8.3041,-8.3062,-8.3124,-8.3426,-8.3435,-8.3176,-8.3187,-8.3194,-8.3199,0,0,0,0,0,0,0,-8.2471,-8.2253,-8.2783,-8.2754,-8.2753,-8.3009,-8.3012,-8.3016,-8.2892,-8.2883,-8.2874,-8.2865,-8.3087,-8.3104,-8.3121,-8.3415,0,0,-8.3175,-8.3182,0,0,0,0,0,0,0,0,-8.2238,-8.2249,-8.2784,-8.2786,-8.2789,-8.3009,-8.3012,-8.3015,-8.2891,-8.2883,-8.2876,-8.2868,-8.3091,-8.3105,-8.3119,0,0,0,0,0,0,0,0,0,0,0,0,0,0,0,-8.2784,-8.2786,0,-8.301,-8.3012,-8.3015,-8.289,-8.2883,-8.2877,-8.2871,-8.3095,-8.3106,-8.3118,0,0,0,0,0,0,0,0,0,0,0,0,0,0,0,0,0,0,0,0,0,0,0,0,0,0,0,0,0,0,0,0,0,0,0,0,0,0,0,0,0,0,0,0,0,0,0,0,0,0,0,0,0,0,0,0,0,0,0,0,0,0,0,0,0,0,0,0,0]}]]]